User: anonymous   Login
Location: Theydon Bois
(51.6750°N, 0.1050°E)
Time: 07:22:28
(UTC+00:00)
Language:

GP-B - Orbit

View from above orbital plane
View from above orbital plane
View from above satellite
View from above satellite

Ground track
Ground track

The orbit data is extracted from the following two-line orbital elements,

1 28230U 04014A   18018.58198989 +.00000122 +00000-0 +14459-4 0  9991
2 28230 089.8423 117.8268 0003320 097.0482 263.1118 14.78595370198124
Epoch (UTC): 18 January 2018 13:58:03
Eccentricity: 0.0003320
inclination: 89.8423°
perigee height: 631 km
apogee height: 636 km
right ascension of ascending node: 117.8268°
argument of perigee: 97.0482°
revolutions per day: 14.78595370
mean anomaly at epoch: 263.1118°
orbit number at epoch: 19812

The dashed part of the orbit path shows where the satellite is in the earth's shadow,  

DLR